owner,sensor,date,latitude,longitude,vertical_datum,wind_speed,wind_to_direction,wind_speed_of_gust,qcFlag 
DISL,ioos:station:DISL:DISL:1,2013-06-01T00:00:00Z,30.2513,-88.0778,9.68,6.55,124.7,-9999.0,'1111122,1111122,1111122' 
DISL,ioos:station:DISL:DISL:1,2013-06-01T00:30:00Z,30.2513,-88.0778,9.68,6.43,118.1,-9999.0,'1111122,1111122,1111122' 
DISL,ioos:station:DISL:DISL:1,2013-06-01T01:00:00Z,30.2513,-88.0778,9.68,6.82,120.9,-9999.0,'1111122,1111122,1111122' 
DISL,ioos:station:DISL:DISL:1,2013-06-01T01:30:00Z,30.2513,-88.0778,9.68,6.29,124.3,-9999.0,'1111122,1111122,1111122' 
DISL,ioos:station:DISL:DISL:1,2013-06-01T02:00:00Z,30.2513,-88.0778,9.68,6.2,122.5,-9999.0,'1111122,1111122,1111122' 
DISL,ioos:station:DISL:DISL:1,2013-06-01T02:30:00Z,30.2513,-88.0778,9.68,6.47,127.1,-9999.0,'1111122,1111122,1111122' 
DISL,ioos:station:DISL:DISL:1,2013-06-01T03:00:00Z,30.2513,-88.0778,9.68,6.6,127.2,-9999.0,'1111122,1111122,1111122' 
DISL,ioos:station:DISL:DISL:1,2013-06-01T03:30:00Z,30.2513,-88.0778,9.68,5.54,132.3,-9999.0,'1111122,1111122,1111122' 
DISL,ioos:station:DISL:DISL:1,2013-06-01T04:00:00Z,30.2513,-88.0778,9.68,5.82,126.6,-9999.0,'1111122,1111122,1111122' 
DISL,ioos:station:DISL:DISL:1,2013-06-01T04:30:00Z,30.2513,-88.0778,9.68,6.37,127.9,-9999.0,'1111122,1111122,1111122' 
DISL,ioos:station:DISL:DISL:1,2013-06-01T05:00:00Z,30.2513,-88.0778,9.68,6.66,125.2,-9999.0,'1111122,1111122,1111122' 
DISL,ioos:station:DISL:DISL:1,2013-06-01T05:30:00Z,30.2513,-88.0778,9.68,6.69,127.2,-9999.0,'1111122,1111122,1111122' 
DISL,ioos:station:DISL:DISL:1,2013-06-01T06:00:00Z,30.2513,-88.0778,9.68,6.91,131.5,-9999.0,'1111122,1111122,1111122' 
DISL,ioos:station:DISL:DISL:1,2013-06-01T06:30:00Z,30.2513,-88.0778,9.68,6.11,135.1,-9999.0,'1111122,1111122,1111122' 
DISL,ioos:station:DISL:DISL:1,2013-06-01T07:00:00Z,30.2513,-88.0778,9.68,6.23,133.1,-9999.0,'1111122,1111122,1111122' 
DISL,ioos:station:DISL:DISL:1,2013-06-01T07:30:00Z,30.2513,-88.0778,9.68,5.47,135.0,-9999.0,'1111122,1111122,1111122' 
DISL,ioos:station:DISL:DISL:1,2013-06-01T08:00:00Z,30.2513,-88.0778,9.68,5.27,133.8,-9999.0,'1111122,1111122,1111122' 
DISL,ioos:station:DISL:DISL:1,2013-06-01T08:30:00Z,30.2513,-88.0778,9.68,5.33,129.7,-9999.0,'1111122,1111122,1111122' 
DISL,ioos:station:DISL:DISL:1,2013-06-01T09:00:00Z,30.2513,-88.0778,9.68,5.32,134.0,-9999.0,'1111122,1111122,1111122' 
DISL,ioos:station:DISL:DISL:1,2013-06-01T09:30:00Z,30.2513,-88.0778,9.68,5.13,128.1,-9999.0,'1111122,1111122,1111122' 
DISL,ioos:station:DISL:DISL:1,2013-06-01T10:00:00Z,30.2513,-88.0778,9.68,5.39,130.3,-9999.0,'1111122,1111122,1111122' 
DISL,ioos:station:DISL:DISL:1,2013-06-01T10:30:00Z,30.2513,-88.0778,9.68,5.63,127.7,-9999.0,'1111122,1111122,1111122' 
DISL,ioos:station:DISL:DISL:1,2013-06-01T11:00:00Z,30.2513,-88.0778,9.68,6.2,126.4,-9999.0,'1111122,1111122,1111122' 
DISL,ioos:station:DISL:DISL:1,2013-06-01T11:30:00Z,30.2513,-88.0778,9.68,5.54,134.4,-9999.0,'1111122,1111122,1111122' 
DISL,ioos:station:DISL:DISL:1,2013-06-01T12:00:00Z,30.2513,-88.0778,9.68,5.95,130.0,-9999.0,'1111122,1111122,1111122' 
DISL,ioos:station:DISL:DISL:1,2013-06-01T12:30:00Z,30.2513,-88.0778,9.68,6.3,127.9,-9999.0,'1111122,1111122,1111122' 
DISL,ioos:station:DISL:DISL:1,2013-06-01T13:00:00Z,30.2513,-88.0778,9.68,6.28,125.8,-9999.0,'1111122,1111122,1111122' 
DISL,ioos:station:DISL:DISL:1,2013-06-01T13:30:00Z,30.2513,-88.0778,9.68,6.39,119.6,-9999.0,'1111122,1111122,1111122' 
DISL,ioos:station:DISL:DISL:1,2013-06-01T14:00:00Z,30.2513,-88.0778,9.68,6.88,122.6,-9999.0,'1111122,1111122,1111122' 
DISL,ioos:station:DISL:DISL:1,2013-06-01T14:30:00Z,30.2513,-88.0778,9.68,5.92,124.7,-9999.0,'1111122,1111122,1111122' 
DISL,ioos:station:DISL:DISL:1,2013-06-01T15:00:00Z,30.2513,-88.0778,9.68,6.35,126.8,-9999.0,'1111122,1111122,1111122' 
DISL,ioos:station:DISL:DISL:1,2013-06-01T15:30:00Z,30.2513,-88.0778,9.68,6.2,127.5,-9999.0,'1111122,1111122,1111122' 
DISL,ioos:station:DISL:DISL:1,2013-06-01T16:00:00Z,30.2513,-88.0778,9.68,6.49,127.2,-9999.0,'1111122,1111122,1111122' 
DISL,ioos:station:DISL:DISL:1,2013-06-01T16:30:00Z,30.2513,-88.0778,9.68,6.61,135.4,-9999.0,'1111122,1111122,1111122' 
DISL,ioos:station:DISL:DISL:1,2013-06-01T17:00:00Z,30.2513,-88.0778,9.68,5.86,134.4,-9999.0,'1111122,1111122,1111122' 
DISL,ioos:station:DISL:DISL:1,2013-06-01T17:30:00Z,30.2513,-88.0778,9.68,5.87,133.1,-9999.0,'1111122,1111122,1111122' 
DISL,ioos:station:DISL:DISL:1,2013-06-01T18:00:00Z,30.2513,-88.0778,9.68,5.47,137.9,-9999.0,'1111122,1111122,1111122' 
DISL,ioos:station:DISL:DISL:1,2013-06-01T18:30:00Z,30.2513,-88.0778,9.68,5.24,131.4,-9999.0,'1111122,1111122,1111122' 
DISL,ioos:station:DISL:DISL:1,2013-06-01T19:00:00Z,30.2513,-88.0778,9.68,5.07,131.8,-9999.0,'1111122,1111122,1111122' 
DISL,ioos:station:DISL:DISL:1,2013-06-01T19:30:00Z,30.2513,-88.0778,9.68,5.13,138.8,-9999.0,'1111122,1111122,1111122' 
DISL,ioos:station:DISL:DISL:1,2013-06-01T20:00:00Z,30.2513,-88.0778,9.68,5.32,132.9,-9999.0,'1111122,1111122,1111122' 
DISL,ioos:station:DISL:DISL:1,2013-06-01T20:30:00Z,30.2513,-88.0778,9.68,5.47,139.2,-9999.0,'1111122,1111122,1111122' 
DISL,ioos:station:DISL:DISL:1,2013-06-01T21:00:00Z,30.2513,-88.0778,9.68,5.77,142.6,-9999.0,'1111122,1111122,1111122' 
DISL,ioos:station:DISL:DISL:1,2013-06-01T21:30:00Z,30.2513,-88.0778,9.68,5.23,145.6,-9999.0,'1111122,1111122,1111122' 
DISL,ioos:station:DISL:DISL:1,2013-06-01T22:00:00Z,30.2513,-88.0778,9.68,4.31,145.9,-9999.0,'1111122,1111122,1111122' 
DISL,ioos:station:DISL:DISL:1,2013-06-01T22:30:00Z,30.2513,-88.0778,9.68,4.14,144.0,-9999.0,'1111122,1111122,1111122' 
DISL,ioos:station:DISL:DISL:1,2013-06-01T23:00:00Z,30.2513,-88.0778,9.68,4.73,144.7,-9999.0,'1111122,1111122,1111122' 
DISL,ioos:station:DISL:DISL:1,2013-06-01T23:30:00Z,30.2513,-88.0778,9.68,4.14,133.5,-9999.0,'1111122,1111122,1111122' 
DISL,ioos:station:DISL:DISL:1,2013-06-02T00:00:00Z,30.2513,-88.0778,9.68,4.68,135.7,-9999.0,'1111122,1111122,1111122' 
DISL,ioos:station:DISL:DISL:1,2013-06-02T00:30:00Z,30.2513,-88.0778,9.68,4.17,138.0,-9999.0,'1111122,1111122,1111122' 
DISL,ioos:station:DISL:DISL:1,2013-06-02T01:00:00Z,30.2513,-88.0778,9.68,4.03,141.2,-9999.0,'1111122,1111122,1111122' 
DISL,ioos:station:DISL:DISL:1,2013-06-02T01:30:00Z,30.2513,-88.0778,9.68,4.43,147.4,-9999.0,'1111122,1111122,1111122' 
DISL,ioos:station:DISL:DISL:1,2013-06-02T02:00:00Z,30.2513,-88.0778,9.68,4.41,134.4,-9999.0,'1111122,1111122,1111122' 
DISL,ioos:station:DISL:DISL:1,2013-06-02T02:30:00Z,30.2513,-88.0778,9.68,4.09,136.7,-9999.0,'1111122,1111122,1111122' 
DISL,ioos:station:DISL:DISL:1,2013-06-02T03:00:00Z,30.2513,-88.0778,9.68,4.47,141.6,-9999.0,'1111122,1111122,1111122' 
DISL,ioos:station:DISL:DISL:1,2013-06-02T03:30:00Z,30.2513,-88.0778,9.68,4.62,138.0,-9999.0,'1111122,1111122,1111122' 
DISL,ioos:station:DISL:DISL:1,2013-06-02T04:00:00Z,30.2513,-88.0778,9.68,4.47,144.8,-9999.0,'1111122,1111122,1111122' 
DISL,ioos:station:DISL:DISL:1,2013-06-02T04:30:00Z,30.2513,-88.0778,9.68,4.05,144.7,-9999.0,'1111122,1111122,1111122' 
DISL,ioos:station:DISL:DISL:1,2013-06-02T05:00:00Z,30.2513,-88.0778,9.68,4.25,137.3,-9999.0,'1111122,1111122,1111122' 
DISL,ioos:station:DISL:DISL:1,2013-06-02T05:30:00Z,30.2513,-88.0778,9.68,4.09,134.1,-9999.0,'1111122,1111122,1111122' 
DISL,ioos:station:DISL:DISL:1,2013-06-02T06:00:00Z,30.2513,-88.0778,9.68,3.33,151.5,-9999.0,'1111122,1111122,1111122' 
DISL,ioos:station:DISL:DISL:1,2013-06-02T06:30:00Z,30.2513,-88.0778,9.68,3.09,160.0,-9999.0,'1111122,1111122,1111122' 
DISL,ioos:station:DISL:DISL:1,2013-06-02T07:00:00Z,30.2513,-88.0778,9.68,3.66,156.3,-9999.0,'1111122,1111122,1111122' 
DISL,ioos:station:DISL:DISL:1,2013-06-02T07:30:00Z,30.2513,-88.0778,9.68,3.43,161.4,-9999.0,'1111122,1111122,1111122' 
DISL,ioos:station:DISL:DISL:1,2013-06-02T08:00:00Z,30.2513,-88.0778,9.68,2.88,160.5,-9999.0,'1111122,1111122,1111122' 
DISL,ioos:station:DISL:DISL:1,2013-06-02T08:30:00Z,30.2513,-88.0778,9.68,1.93,191.7,-9999.0,'1111122,1111122,1111122' 
DISL,ioos:station:DISL:DISL:1,2013-06-02T09:00:00Z,30.2513,-88.0778,9.68,1.78,216.2,-9999.0,'1111122,1111122,1111122' 
DISL,ioos:station:DISL:DISL:1,2013-06-02T09:30:00Z,30.2513,-88.0778,9.68,2.01,197.9,-9999.0,'1111122,1111122,1111122' 
DISL,ioos:station:DISL:DISL:1,2013-06-02T10:00:00Z,30.2513,-88.0778,9.68,1.16,261.4,-9999.0,'1111122,1111122,1111122' 
DISL,ioos:station:DISL:DISL:1,2013-06-02T10:30:00Z,30.2513,-88.0778,9.68,1.45,268.9,-9999.0,'1111122,1111122,1111122' 
DISL,ioos:station:DISL:DISL:1,2013-06-02T11:00:00Z,30.2513,-88.0778,9.68,1.17,263.4,-9999.0,'1111122,1111122,1111122' 
DISL,ioos:station:DISL:DISL:1,2013-06-02T11:30:00Z,30.2513,-88.0778,9.68,0.4,283.6,-9999.0,'1111122,1111122,1111122' 
DISL,ioos:station:DISL:DISL:1,2013-06-02T12:00:00Z,30.2513,-88.0778,9.68,1.5,343.2,-9999.0,'1111122,1111122,1111122' 
DISL,ioos:station:DISL:DISL:1,2013-06-02T12:30:00Z,30.2513,-88.0778,9.68,0.54,9.8,-9999.0,'1111122,1111122,1111122' 
DISL,ioos:station:DISL:DISL:1,2013-06-02T13:00:00Z,30.2513,-88.0778,9.68,2.61,2.229,-9999.0,'1111122,1111122,1111122' 
DISL,ioos:station:DISL:DISL:1,2013-06-02T13:30:00Z,30.2513,-88.0778,9.68,5.38,0.384,-9999.0,'1111122,1111122,1111122' 
DISL,ioos:station:DISL:DISL:1,2013-06-02T14:00:00Z,30.2513,-88.0778,9.68,7.03,352.8,-9999.0,'1111122,1111122,1111122' 
DISL,ioos:station:DISL:DISL:1,2013-06-02T14:30:00Z,30.2513,-88.0778,9.68,6.2,6.754,-9999.0,'1111122,1111122,1111122' 
DISL,ioos:station:DISL:DISL:1,2013-06-02T15:00:00Z,30.2513,-88.0778,9.68,5.69,7.3,-9999.0,'1111122,1111122,1111122' 
DISL,ioos:station:DISL:DISL:1,2013-06-02T15:30:00Z,30.2513,-88.0778,9.68,4.79,17.69,-9999.0,'1111122,1111122,1111122' 
DISL,ioos:station:DISL:DISL:1,2013-06-02T16:00:00Z,30.2513,-88.0778,9.68,2.75,37.63,-9999.0,'1111122,1111122,1111122' 
DISL,ioos:station:DISL:DISL:1,2013-06-02T16:30:00Z,30.2513,-88.0778,9.68,1.87,78.0,-9999.0,'1111122,1111122,1111122' 
DISL,ioos:station:DISL:DISL:1,2013-06-02T17:00:00Z,30.2513,-88.0778,9.68,2.15,105.0,-9999.0,'1111122,1111122,1111122' 
DISL,ioos:station:DISL:DISL:1,2013-06-02T17:30:00Z,30.2513,-88.0778,9.68,2.44,159.0,-9999.0,'1111122,1111122,1111122' 
DISL,ioos:station:DISL:DISL:1,2013-06-02T18:00:00Z,30.2513,-88.0778,9.68,3.72,141.6,-9999.0,'1111122,1111122,1111122' 
DISL,ioos:station:DISL:DISL:1,2013-06-02T18:30:00Z,30.2513,-88.0778,9.68,4.54,139.7,-9999.0,'1111122,1111122,1111122' 
DISL,ioos:station:DISL:DISL:1,2013-06-02T19:00:00Z,30.2513,-88.0778,9.68,5.33,141.4,-9999.0,'1111122,1111122,1111122' 
DISL,ioos:station:DISL:DISL:1,2013-06-02T19:30:00Z,30.2513,-88.0778,9.68,4.87,158.5,-9999.0,'1111122,1111122,1111122' 
DISL,ioos:station:DISL:DISL:1,2013-06-02T20:00:00Z,30.2513,-88.0778,9.68,5.31,160.9,-9999.0,'1111122,1111122,1111122' 
DISL,ioos:station:DISL:DISL:1,2013-06-02T20:30:00Z,30.2513,-88.0778,9.68,4.44,159.1,-9999.0,'1111122,1111122,1111122' 
DISL,ioos:station:DISL:DISL:1,2013-06-02T21:00:00Z,30.2513,-88.0778,9.68,4.69,137.1,-9999.0,'1111122,1111122,1111122' 
DISL,ioos:station:DISL:DISL:1,2013-06-02T21:30:00Z,30.2513,-88.0778,9.68,4.86,160.1,-9999.0,'1111122,1111122,1111122' 
DISL,ioos:station:DISL:DISL:1,2013-06-02T22:00:00Z,30.2513,-88.0778,9.68,3.98,183.1,-9999.0,'1111122,1111122,1111122' 
DISL,ioos:station:DISL:DISL:1,2013-06-02T22:30:00Z,30.2513,-88.0778,9.68,4.0,191.9,-9999.0,'1111122,1111122,1111122' 
DISL,ioos:station:DISL:DISL:1,2013-06-02T23:00:00Z,30.2513,-88.0778,9.68,3.26,193.8,-9999.0,'1111122,1111122,1111122' 
DISL,ioos:station:DISL:DISL:1,2013-06-02T23:30:00Z,30.2513,-88.0778,9.68,3.21,186.2,-9999.0,'1111122,1111122,1111122' 
DISL,ioos:station:DISL:DISL:1,2013-06-03T00:00:00Z,30.2513,-88.0778,9.68,3.36,185.2,-9999.0,'1111122,1111122,1111122' 
DISL,ioos:station:DISL:DISL:1,2013-06-03T00:30:00Z,30.2513,-88.0778,9.68,3.13,187.2,-9999.0,'1111122,1111122,1111122' 
DISL,ioos:station:DISL:DISL:1,2013-06-03T01:00:00Z,30.2513,-88.0778,9.68,2.3,201.9,-9999.0,'1111122,1111122,1111122' 
DISL,ioos:station:DISL:DISL:1,2013-06-03T01:30:00Z,30.2513,-88.0778,9.68,2.04,188.4,-9999.0,'1111122,1111122,1111122' 
DISL,ioos:station:DISL:DISL:1,2013-06-03T02:00:00Z,30.2513,-88.0778,9.68,1.05,185.5,-9999.0,'1111122,1111122,1111122' 
DISL,ioos:station:DISL:DISL:1,2013-06-03T02:30:00Z,30.2513,-88.0778,9.68,0.0,218.1,-9999.0,'1114422,1111122,1111122' 
DISL,ioos:station:DISL:DISL:1,2013-06-03T03:00:00Z,30.2513,-88.0778,9.68,0.05,175.0,-9999.0,'1111122,1111122,1111122' 
DISL,ioos:station:DISL:DISL:1,2013-06-03T03:30:00Z,30.2513,-88.0778,9.68,3.81,28.97,-9999.0,'1111122,1111122,1111122' 
DISL,ioos:station:DISL:DISL:1,2013-06-03T04:00:00Z,30.2513,-88.0778,9.68,3.21,35.26,-9999.0,'1111122,1111122,1111122' 
DISL,ioos:station:DISL:DISL:1,2013-06-03T04:30:00Z,30.2513,-88.0778,9.68,2.55,104.6,-9999.0,'1111122,1111122,1111122' 
DISL,ioos:station:DISL:DISL:1,2013-06-03T05:00:00Z,30.2513,-88.0778,9.68,2.42,81.4,-9999.0,'1111122,1111122,1111122' 
DISL,ioos:station:DISL:DISL:1,2013-06-03T05:30:00Z,30.2513,-88.0778,9.68,1.72,44.0,-9999.0,'1111122,1111122,1111122' 
DISL,ioos:station:DISL:DISL:1,2013-06-03T06:00:00Z,30.2513,-88.0778,9.68,2.07,284.4,-9999.0,'1111122,1111122,1111122' 
DISL,ioos:station:DISL:DISL:1,2013-06-03T06:30:00Z,30.2513,-88.0778,9.68,0.08,34.77,-9999.0,'1111122,1111122,1111122' 
DISL,ioos:station:DISL:DISL:1,2013-06-03T07:00:00Z,30.2513,-88.0778,9.68,0.15,273.7,-9999.0,'1111122,1111122,1111122' 
DISL,ioos:station:DISL:DISL:1,2013-06-03T07:30:00Z,30.2513,-88.0778,9.68,1.46,329.4,-9999.0,'1111122,1111122,1111122' 
DISL,ioos:station:DISL:DISL:1,2013-06-03T08:00:00Z,30.2513,-88.0778,9.68,0.0,0.0,-9999.0,'1114422,1114422,1111122' 
DISL,ioos:station:DISL:DISL:1,2013-06-03T08:30:00Z,30.2513,-88.0778,9.68,0.0,0.0,-9999.0,'1114422,1114422,1111122' 
DISL,ioos:station:DISL:DISL:1,2013-06-03T09:00:00Z,30.2513,-88.0778,9.68,0.56,163.3,-9999.0,'1111122,1111122,1111122' 
DISL,ioos:station:DISL:DISL:1,2013-06-03T09:30:00Z,30.2513,-88.0778,9.68,1.17,146.9,-9999.0,'1111122,1111122,1111122' 
DISL,ioos:station:DISL:DISL:1,2013-06-03T10:00:00Z,30.2513,-88.0778,9.68,2.36,172.7,-9999.0,'1111122,1111122,1111122' 
DISL,ioos:station:DISL:DISL:1,2013-06-03T10:30:00Z,30.2513,-88.0778,9.68,2.4,173.5,-9999.0,'1111122,1111122,1111122' 
DISL,ioos:station:DISL:DISL:1,2013-06-03T11:00:00Z,30.2513,-88.0778,9.68,1.8,198.6,-9999.0,'1111122,1111122,1111122' 
DISL,ioos:station:DISL:DISL:1,2013-06-03T11:30:00Z,30.2513,-88.0778,9.68,2.06,189.1,-9999.0,'1111122,1111122,1111122' 
DISL,ioos:station:DISL:DISL:1,2013-06-03T12:00:00Z,30.2513,-88.0778,9.68,1.86,201.7,-9999.0,'1111122,1111122,1111122' 
DISL,ioos:station:DISL:DISL:1,2013-06-03T12:30:00Z,30.2513,-88.0778,9.68,1.94,202.8,-9999.0,'1111122,1111122,1111122' 
DISL,ioos:station:DISL:DISL:1,2013-06-03T13:00:00Z,30.2513,-88.0778,9.68,1.98,212.9,-9999.0,'1111122,1111122,1111122' 
DISL,ioos:station:DISL:DISL:1,2013-06-03T13:30:00Z,30.2513,-88.0778,9.68,2.35,212.9,-9999.0,'1111122,1111122,1111122' 
DISL,ioos:station:DISL:DISL:1,2013-06-03T14:00:00Z,30.2513,-88.0778,9.68,2.15,206.0,-9999.0,'1111122,1111122,1111122' 
DISL,ioos:station:DISL:DISL:1,2013-06-03T14:30:00Z,30.2513,-88.0778,9.68,2.44,199.0,-9999.0,'1111122,1111122,1111122' 
DISL,ioos:station:DISL:DISL:1,2013-06-03T15:00:00Z,30.2513,-88.0778,9.68,2.87,208.4,-9999.0,'1111122,1111122,1111122' 
DISL,ioos:station:DISL:DISL:1,2013-06-03T15:30:00Z,30.2513,-88.0778,9.68,2.33,228.8,-9999.0,'1111122,1111122,1111122' 
DISL,ioos:station:DISL:DISL:1,2013-06-03T16:00:00Z,30.2513,-88.0778,9.68,2.81,211.2,-9999.0,'1111122,1111122,1111122' 
DISL,ioos:station:DISL:DISL:1,2013-06-03T16:30:00Z,30.2513,-88.0778,9.68,2.45,186.4,-9999.0,'1111122,1111122,1111122' 
DISL,ioos:station:DISL:DISL:1,2013-06-03T17:00:00Z,30.2513,-88.0778,9.68,2.76,163.2,-9999.0,'1111122,1111122,1111122' 
DISL,ioos:station:DISL:DISL:1,2013-06-03T17:30:00Z,30.2513,-88.0778,9.68,2.16,165.6,-9999.0,'1111122,1111122,1111122' 
DISL,ioos:station:DISL:DISL:1,2013-06-03T18:00:00Z,30.2513,-88.0778,9.68,2.46,150.7,-9999.0,'1111122,1111122,1111122' 
DISL,ioos:station:DISL:DISL:1,2013-06-03T18:30:00Z,30.2513,-88.0778,9.68,3.31,130.8,-9999.0,'1111122,1111122,1111122' 
DISL,ioos:station:DISL:DISL:1,2013-06-03T19:00:00Z,30.2513,-88.0778,9.68,2.55,161.7,-9999.0,'1111122,1111122,1111122' 
DISL,ioos:station:DISL:DISL:1,2013-06-03T19:30:00Z,30.2513,-88.0778,9.68,2.41,159.6,-9999.0,'1111122,1111122,1111122' 
DISL,ioos:station:DISL:DISL:1,2013-06-03T20:00:00Z,30.2513,-88.0778,9.68,2.64,157.1,-9999.0,'1111122,1111122,1111122' 
DISL,ioos:station:DISL:DISL:1,2013-06-03T20:30:00Z,30.2513,-88.0778,9.68,2.45,149.7,-9999.0,'1111122,1111122,1111122' 
DISL,ioos:station:DISL:DISL:1,2013-06-03T21:00:00Z,30.2513,-88.0778,9.68,2.93,155.5,-9999.0,'1111122,1111122,1111122' 
DISL,ioos:station:DISL:DISL:1,2013-06-03T21:30:00Z,30.2513,-88.0778,9.68,2.62,160.5,-9999.0,'1111122,1111122,1111122' 
DISL,ioos:station:DISL:DISL:1,2013-06-03T22:00:00Z,30.2513,-88.0778,9.68,3.37,160.8,-9999.0,'1111122,1111122,1111122' 
DISL,ioos:station:DISL:DISL:1,2013-06-03T22:30:00Z,30.2513,-88.0778,9.68,3.42,159.7,-9999.0,'1111122,1111122,1111122' 
DISL,ioos:station:DISL:DISL:1,2013-06-03T23:00:00Z,30.2513,-88.0778,9.68,3.41,152.5,-9999.0,'1111122,1111122,1111122' 
DISL,ioos:station:DISL:DISL:1,2013-06-03T23:30:00Z,30.2513,-88.0778,9.68,3.17,138.2,-9999.0,'1111122,1111122,1111122' 
DISL,ioos:station:DISL:DISL:1,2013-06-04T00:00:00Z,30.2513,-88.0778,9.68,2.62,166.6,-9999.0,'1111122,1111122,1111122' 
DISL,ioos:station:DISL:DISL:1,2013-06-04T00:30:00Z,30.2513,-88.0778,9.68,2.32,158.8,-9999.0,'1111122,1111122,1111122' 
DISL,ioos:station:DISL:DISL:1,2013-06-04T01:00:00Z,30.2513,-88.0778,9.68,1.7,141.9,-9999.0,'1111122,1111122,1111122' 
DISL,ioos:station:DISL:DISL:1,2013-06-04T01:30:00Z,30.2513,-88.0778,9.68,1.69,148.6,-9999.0,'1111122,1111122,1111122' 
DISL,ioos:station:DISL:DISL:1,2013-06-04T02:00:00Z,30.2513,-88.0778,9.68,2.62,145.6,-9999.0,'1111122,1111122,1111122' 
DISL,ioos:station:DISL:DISL:1,2013-06-04T02:30:00Z,30.2513,-88.0778,9.68,3.56,146.4,-9999.0,'1111122,1111122,1111122' 
DISL,ioos:station:DISL:DISL:1,2013-06-04T03:00:00Z,30.2513,-88.0778,9.68,3.44,143.5,-9999.0,'1111122,1111122,1111122' 
DISL,ioos:station:DISL:DISL:1,2013-06-04T03:30:00Z,30.2513,-88.0778,9.68,3.82,154.4,-9999.0,'1111122,1111122,1111122' 
DISL,ioos:station:DISL:DISL:1,2013-06-04T04:00:00Z,30.2513,-88.0778,9.68,4.33,148.9,-9999.0,'1111122,1111122,1111122' 
DISL,ioos:station:DISL:DISL:1,2013-06-04T04:30:00Z,30.2513,-88.0778,9.68,3.52,158.6,-9999.0,'1111122,1111122,1111122' 
DISL,ioos:station:DISL:DISL:1,2013-06-04T05:00:00Z,30.2513,-88.0778,9.68,3.67,158.3,-9999.0,'1111122,1111122,1111122' 
DISL,ioos:station:DISL:DISL:1,2013-06-04T05:30:00Z,30.2513,-88.0778,9.68,2.93,164.1,-9999.0,'1111122,1111122,1111122' 
DISL,ioos:station:DISL:DISL:1,2013-06-04T06:00:00Z,30.2513,-88.0778,9.68,3.15,165.8,-9999.0,'1111122,1111122,1111122' 
DISL,ioos:station:DISL:DISL:1,2013-06-04T06:30:00Z,30.2513,-88.0778,9.68,3.32,150.0,-9999.0,'1111122,1111122,1111122' 
DISL,ioos:station:DISL:DISL:1,2013-06-04T07:00:00Z,30.2513,-88.0778,9.68,2.41,153.4,-9999.0,'1111122,1111122,1111122' 
DISL,ioos:station:DISL:DISL:1,2013-06-04T07:30:00Z,30.2513,-88.0778,9.68,2.34,145.4,-9999.0,'1111122,1111122,1111122' 
DISL,ioos:station:DISL:DISL:1,2013-06-04T08:00:00Z,30.2513,-88.0778,9.68,1.41,160.1,-9999.0,'1111122,1111122,1111122' 
DISL,ioos:station:DISL:DISL:1,2013-06-04T08:30:00Z,30.2513,-88.0778,9.68,1.97,143.5,-9999.0,'1111122,1111122,1111122' 
DISL,ioos:station:DISL:DISL:1,2013-06-04T09:00:00Z,30.2513,-88.0778,9.68,1.75,120.8,-9999.0,'1111122,1111122,1111122' 
DISL,ioos:station:DISL:DISL:1,2013-06-04T09:30:00Z,30.2513,-88.0778,9.68,1.6,134.9,-9999.0,'1111122,1111122,1111122' 
DISL,ioos:station:DISL:DISL:1,2013-06-04T10:00:00Z,30.2513,-88.0778,9.68,1.04,116.2,-9999.0,'1111122,1111122,1111122' 
DISL,ioos:station:DISL:DISL:1,2013-06-04T10:30:00Z,30.2513,-88.0778,9.68,1.81,116.1,-9999.0,'1111122,1111122,1111122' 
DISL,ioos:station:DISL:DISL:1,2013-06-04T11:00:00Z,30.2513,-88.0778,9.68,1.72,92.3,-9999.0,'1111122,1111122,1111122' 
DISL,ioos:station:DISL:DISL:1,2013-06-04T11:30:00Z,30.2513,-88.0778,9.68,4.31,101.2,-9999.0,'1111122,1111122,1111122' 
DISL,ioos:station:DISL:DISL:1,2013-06-04T12:00:00Z,30.2513,-88.0778,9.68,1.54,93.6,-9999.0,'1111122,1111122,1111122' 
DISL,ioos:station:DISL:DISL:1,2013-06-04T12:30:00Z,30.2513,-88.0778,9.68,2.68,97.9,-9999.0,'1111122,1111122,1111122' 
DISL,ioos:station:DISL:DISL:1,2013-06-04T13:00:00Z,30.2513,-88.0778,9.68,2.71,84.3,-9999.0,'1111122,1111122,1111122' 
DISL,ioos:station:DISL:DISL:1,2013-06-04T13:30:00Z,30.2513,-88.0778,9.68,2.99,93.4,-9999.0,'1111122,1111122,1111122' 
DISL,ioos:station:DISL:DISL:1,2013-06-04T14:00:00Z,30.2513,-88.0778,9.68,3.34,76.7,-9999.0,'1111122,1111122,1111122' 
DISL,ioos:station:DISL:DISL:1,2013-06-04T14:30:00Z,30.2513,-88.0778,9.68,3.63,65.26,-9999.0,'1111122,1111122,1111122' 
DISL,ioos:station:DISL:DISL:1,2013-06-04T15:00:00Z,30.2513,-88.0778,9.68,4.15,74.9,-9999.0,'1111122,1111122,1111122' 
DISL,ioos:station:DISL:DISL:1,2013-06-04T15:30:00Z,30.2513,-88.0778,9.68,4.8,118.5,-9999.0,'1111122,1111122,1111122' 
DISL,ioos:station:DISL:DISL:1,2013-06-04T16:00:00Z,30.2513,-88.0778,9.68,3.81,110.3,-9999.0,'1111122,1111122,1111122' 
DISL,ioos:station:DISL:DISL:1,2013-06-04T16:30:00Z,30.2513,-88.0778,9.68,4.84,116.4,-9999.0,'1111122,1111122,1111122' 
DISL,ioos:station:DISL:DISL:1,2013-06-04T17:00:00Z,30.2513,-88.0778,9.68,4.66,120.7,-9999.0,'1111122,1111122,1111122' 
DISL,ioos:station:DISL:DISL:1,2013-06-04T17:30:00Z,30.2513,-88.0778,9.68,4.56,116.3,-9999.0,'1111122,1111122,1111122' 
DISL,ioos:station:DISL:DISL:1,2013-06-04T18:00:00Z,30.2513,-88.0778,9.68,4.76,119.7,-9999.0,'1111122,1111122,1111122' 
DISL,ioos:station:DISL:DISL:1,2013-06-04T18:30:00Z,30.2513,-88.0778,9.68,4.89,120.3,-9999.0,'1111122,1111122,1111122' 
DISL,ioos:station:DISL:DISL:1,2013-06-04T19:00:00Z,30.2513,-88.0778,9.68,4.55,137.2,-9999.0,'1111122,1111122,1111122' 
DISL,ioos:station:DISL:DISL:1,2013-06-04T19:30:00Z,30.2513,-88.0778,9.68,4.79,134.0,-9999.0,'1111122,1111122,1111122' 
DISL,ioos:station:DISL:DISL:1,2013-06-04T20:00:00Z,30.2513,-88.0778,9.68,4.77,141.4,-9999.0,'1111122,1111122,1111122' 
DISL,ioos:station:DISL:DISL:1,2013-06-04T20:30:00Z,30.2513,-88.0778,9.68,4.47,137.8,-9999.0,'1111122,1111122,1111122' 
DISL,ioos:station:DISL:DISL:1,2013-06-04T21:00:00Z,30.2513,-88.0778,9.68,4.87,137.9,-9999.0,'1111122,1111122,1111122' 
DISL,ioos:station:DISL:DISL:1,2013-06-04T21:30:00Z,30.2513,-88.0778,9.68,5.08,137.4,-9999.0,'1111122,1111122,1111122' 
DISL,ioos:station:DISL:DISL:1,2013-06-04T22:00:00Z,30.2513,-88.0778,9.68,5.71,128.9,-9999.0,'1111122,1111122,1111122' 
DISL,ioos:station:DISL:DISL:1,2013-06-04T22:30:00Z,30.2513,-88.0778,9.68,5.55,122.5,-9999.0,'1111122,1111122,1111122' 
DISL,ioos:station:DISL:DISL:1,2013-06-04T23:00:00Z,30.2513,-88.0778,9.68,6.35,124.3,-9999.0,'1111122,1111122,1111122' 
DISL,ioos:station:DISL:DISL:1,2013-06-04T23:30:00Z,30.2513,-88.0778,9.68,5.44,127.5,-9999.0,'1111122,1111122,1111122' 
DISL,ioos:station:DISL:DISL:1,2013-06-05T00:00:00Z,30.2513,-88.0778,9.68,5.5,133.8,-9999.0,'1111122,1111122,1111122' 
DISL,ioos:station:DISL:DISL:1,2013-06-05T00:30:00Z,30.2513,-88.0778,9.68,5.46,131.8,-9999.0,'1111122,1111122,1111122' 
DISL,ioos:station:DISL:DISL:1,2013-06-05T01:00:00Z,30.2513,-88.0778,9.68,5.08,123.8,-9999.0,'1111122,1111122,1111122' 
DISL,ioos:station:DISL:DISL:1,2013-06-05T01:30:00Z,30.2513,-88.0778,9.68,5.44,129.7,-9999.0,'1111122,1111122,1111122' 
DISL,ioos:station:DISL:DISL:1,2013-06-05T02:00:00Z,30.2513,-88.0778,9.68,6.61,132.1,-9999.0,'1111122,1111122,1111122' 
DISL,ioos:station:DISL:DISL:1,2013-06-05T02:30:00Z,30.2513,-88.0778,9.68,6.81,145.6,-9999.0,'1111122,1111122,1111122' 
DISL,ioos:station:DISL:DISL:1,2013-06-05T03:00:00Z,30.2513,-88.0778,9.68,5.87,147.8,-9999.0,'1111122,1111122,1111122' 
DISL,ioos:station:DISL:DISL:1,2013-06-05T03:30:00Z,30.2513,-88.0778,9.68,5.33,150.5,-9999.0,'1111122,1111122,1111122' 
DISL,ioos:station:DISL:DISL:1,2013-06-05T04:00:00Z,30.2513,-88.0778,9.68,4.78,153.5,-9999.0,'1111122,1111122,1111122' 